Regional Weather Roundup
Issued by NWS

Home | Current Version | Previous Version | Text Only | Print | Product List | Glossary On
Versions: 1 2 3 4 5 6 7 8 9 10 11 12 13 14 15 16 17 18 19 20 21 22 23 24 25 26 27
000
ASUS45 KPSR 240910
RWRAZ

ARIZONA HOURLY REGIONAL WEATHER ROUNDUP
NATIONAL WEATHER SERVICE PHOENIX AZ
200 AM MST MON APR 24 2017

NOTE: FAIR INDICATES FEW OR NO CLOUDS BELOW 12,000 FEET WITH NO
SIGNIFICANT WEATHER AND/OR OBSTRUCTIONS TO VISIBILITY.

AZZ001>003-036-241000-
NORTHWEST ARIZONA

CITY           SKY/WX    TMP DP  RH WIND       PRES   REMARKS
BULLHEAD CITY  CLEAR     77  18  10 SW8       29.64F
KINGMAN        CLEAR     65  17  15 S16       29.75F
$$

AZZ004>008-015-016-018-241000-
NORTH CENTRAL ARIZONA

CITY           SKY/WX    TMP DP  RH WIND       PRES   REMARKS
GRAND CANYON   CLEAR     41  23  48 SW6       29.91F
WILLIAMS       CLEAR     54  25  32 SW14G21   29.94F
PRESCOTT       CLEAR     58  28  32 VRB3      29.88S
FLAGSTAFF      CLEAR     49  21  33 W6        29.96S
PAYSON         CLEAR     59  19  21 CALM      29.93F
PAGE           PTCLDY    62  26  25 CALM      29.77F
$$

AZZ009>014-017-241000-
NORTHEAST ARIZONA

CITY           SKY/WX    TMP DP  RH WIND       PRES   REMARKS
WINSLOW        PTCLDY    47  20  34 SW5       29.87F
SAINT JOHNS    CLEAR     53  19  26 NW3       29.91F
WINDOW ROCK    PTCLDY    45  19  35 S5        29.94F
SHOW LOW       CLEAR     54  19  26 S7        29.97S
$$

AZZ540-542>544-546-548-241000-
GREATER PHOENIX AREA

CITY           SKY/WX    TMP DP  RH WIND       PRES   REMARKS
PHOENIX        CLEAR     78  22  12 SW3       29.69S
BUCKEYE        CLEAR     72  25  17 SW6       29.70S
LUKE AFB       CLEAR     77  25  14 S13       29.68S
DEER VALLEY    CLEAR     74  23  15 S7        29.70F
SCOTTSDALE     CLEAR     76  25  15 CALM      29.73S
MESA-GATEWAY   CLEAR     68  27  21 E7        29.74R
$$

AZZ539-553-241000-
SOUTHWEST MARICOPA COUNTY AND PINAL COUNTY

CITY           SKY/WX    TMP DP  RH WIND       PRES   REMARKS
CASA GRANDE    CLEAR     72  18  13 SW12      29.74F
GILA BEND      FAIR      73  17  12 S10       29.69F
$$

AZZ503-504-507>509-241000-
SOUTHEAST ARIZONA

CITY           SKY/WX    TMP DP  RH WIND       PRES   REMARKS
TUCSON         CLEAR     68  22  17 CALM      29.84S
DAVIS-MONTHAN  CLEAR     67  22  17 SE5       29.83S
NOGALES        CLEAR     60  18  19 NE6       29.92F
SIERRA VISTA   CLEAR     64  15  15 SW8       29.95F
DOUGLAS        CLEAR     59  14  17 SW5       29.92F
SAFFORD        CLEAR     73  21  14 NW14      29.81S
$$

AZZ532-241000-
SOUTHWEST ARIZONA

CITY           SKY/WX    TMP DP  RH WIND       PRES   REMARKS
YUMA           PTCLDY    74  21  13 NW12      29.69F
$$

CAZ041-043-047-048-061-525>527-560>570-241000-
SOUTHERN CALIFORNIA

CITY           SKY/WX    TMP DP  RH WIND       PRES   REMARKS
DOWNTOWN L.A.  CLEAR     59  52  77 CALM      29.87R
L.A. AIRPORT   MOCLDY    60  52  74 NE5       29.88R
SAN DIEGO      MOCLDY    63  52  67 S8        29.89F
BURBANK        CLEAR     58  49  72 CALM      29.87S
ONTARIO        PTCLDY    57  54  89 SW6       29.87S
RIVERSIDE      CLEAR     58  54  86 N3        29.87F
PALM SPRINGS   PTCLDY    70  42  36 SE5       29.69F
EL CENTRO NAS  LGT RAIN  75  24  15 W25G32    29.71F
IMPERIAL       CLEAR     74  32  21 W18G28    29.68F
BLYTHE         CLEAR     69  34  27 W5        29.67F
NEEDLES        CLEAR     80  25  13 VRB3      29.66F
$$

NVZ020-UTZ003-241000-
SOUTHERN NEVADA-UTAH

CITY           SKY/WX    TMP DP  RH WIND       PRES   REMARKS
LAS VEGAS      MOCLDY    69  19  15 SW5       29.67R
SALT LAKE CITY MOCLDY    50  37  61 SE9       29.75F
$$

NMZ009-TXZ055-241000-
NEW MEXICO-WEST TEXAS

CITY           SKY/WX    TMP DP  RH WIND       PRES   REMARKS
ALBUQUERQUE    CLOUDY    58  30  34 S13       29.89F
EL PASO        MOCLDY    68  37  32 S12       29.85F
$$


........................KEY........................
SKY/WX - SKY CONDITION/WEATHER
TMP    - TEMPERATURE IN FAHRENHEIT
DP     - DEW POINT IN FAHRENHEIT
RH     - RELATIVE HUMIDITY IN PERCENT
WIND   - DIRECTION AND SPEED IN MILES PER HOUR (MPH)
VRB    - VARIABLE WIND DIRECTION
PRES   - MEAN SEA LEVEL PRESSURE IN INCHES OF MERCURY
         F - FALLING PRESSURE   R - RISING PRESSURE
         S - STEADY PRESSURE
VSB    - VISIBILITY IN MILES
HX     - HEAT INDEX IN FAHRENHEIT
WCI    - WIND CHILL INDEX IN FAHRENHEIT
TC     - TEMPERATURE IN CELSIUS WHICH IS ALSO KNOWN AS
         TEMPERATURE IN CENTIGRADE
AFB    - AIR FORCE BASE
         LUKE AFB IS LUKE AIR FORCE BASE
         DAVIS-MONTHAN IS DAVIS-MONTHAN AIR FORCE BASE
NAS    - NAVAL AIR STATION
         EL CENTRO NAS IS EL CENTRO NAVAL AIR STATION
N/A    - NOT AVAILABLE





USA.gov is the U.S. government's official web portal to all federal, state and local government web resources and services.